Cosmos 2227 - Orbit

View from above orbital plane
View from above orbital plane
View from above satellite
View from above satellite

Ground track
Ground track

The orbit data is extracted from the following two-line orbital elements,

1 22284U 92093A   13139.53578856 -.00000250  00000-0 -10821-3 0  6020
2 22284 070.9783 117.9467 0022401 266.8623 231.7746 14.13102429 52195
Epoch (UTC): 19 May 2013 12:51:32
Eccentricity: 0.0022401
inclination: 70.9783°
perigee height: 832 km
apogee height: 865 km
right ascension of ascending node: 117.9467°
argument of perigee: 266.8623°
revolutions per day: 14.13102429
mean anomaly at epoch: 231.7746°
orbit number at epoch: 5219

The dashed part of the orbit path shows where the satellite is in the earth's shadow,  

Developed and maintained by Chris Peat, Heavens-Above GmbH. Please read the updated FAQ before sending e-mail. Imprint. DLR